FW3788 Weather Reports


Display with metric or nautical units.
time (UTC)temp
F
wind
direction
speed
MPH
gust
MPH
rain 1hr
in
rain 24hr
in
rain mn
in
humidity
%
barometer
mb
20260902182517 69 303 1.0 10.0 0.00 0.00 0.00 41 1016.0
20260902182017 69 295 3.0 9.0 0.00 0.00 0.00 42 1016.0
20260902181517 68 292 4.0 9.0 0.00 0.00 0.00 44 1016.0
20260902181016 68 328 3.0 12.0 0.00 0.00 0.00 44 1016.1
20260902180516 68 280 3.0 12.0 0.00 0.00 0.00 44 1016.1
20260902180016 68 289 4.0 9.0 0.00 0.00 0.00 44 1016.2
20260902175518 68 306 2.0 8.0 0.00 0.00 0.00 44 1016.2
20260902175018 68 299 1.0 6.0 0.00 0.00 0.00 43 1016.2
20260902174520 68 309 1.0 5.0 0.00 0.00 0.00 44 1016.2
20260902174019 67 314 0.0 5.0 0.00 0.00 0.00 44 1016.1
20260902173519 67 316 0.0 4.0 0.00 0.00 0.00 46 1016.1
20260902173022 66 318 1.0 7.0 0.00 0.00 0.00 47 1016.2
20260902172521 65 326 4.0 8.0 0.00 0.00 0.00 47 1016.2
20260902172017 66 308 3.0 7.0 0.00 0.00 0.00 47 1016.2
20260902171517 66 320 1.0 6.0 0.00 0.00 0.00 47 1016.3
20260902171017 65 324 4.0 8.0 0.00 0.00 0.00 47 1016.4
20260902170520 65 320 2.0 8.0 0.00 0.00 0.00 48 1016.3
20260902170117 64 313 3.0 7.0 0.00 0.00 0.00 49 1016.3
20260902165517 64 308 3.0 7.0 0.00 0.00 0.00 49 1016.3
20260902165017 64 235 1.0 5.0 0.00 0.00 0.00 49 1016.3
20260902164517 63 231 3.0 5.0 0.00 0.00 0.00 50 1016.3
20260902164017 63 229 0.0 4.0 0.00 0.00 0.00 51 1016.3
20260902163517 62 228 0.0 4.0 0.00 0.00 0.00 52 1016.3
20260902163018 62 228 0.0 0.0 0.00 0.00 0.00 53 1016.4
20260902162516 62 228 0.0 0.0 0.00 0.00 0.00 52 1016.4
20260902162020 62 228 0.0 0.0 0.00 0.00 0.00 54 1016.3
20260902161517 61 228 0.0 5.0 0.00 0.00 0.00 56 1016.4
20260902161017 61 228 0.0 5.0 0.00 0.00 0.00 57 1016.4
20260902160516 60 226 0.0 4.0 0.00 0.00 0.00 58 1016.6
20260902160017 60 225 0.0 4.0 0.00 0.00 0.00 58 1016.6
20260902155518 60 220 0.0 5.0 0.00 0.00 0.00 59 1016.7
20260902155019 59 220 0.0 5.0 0.00 0.00 0.00 61 1016.7
20260902154521 58 206 0.0 0.0 0.00 0.00 0.00 61 1016.8
20260902154017 58 205 0.0 0.0 0.00 0.00 0.00 61 1016.7
20260902153521 57 204 0.0 0.0 0.00 0.00 0.00 61 1016.7
20260902153039 57 204 0.0 0.0 0.00 0.00 0.00 62 1016.6
20260902152518 56 204 0.0 0.0 0.00 0.00 0.00 61 1016.6
20260902152017 55 204 0.0 0.0 0.00 0.00 0.00 61 1016.6
20260902151518 53 204 0.0 0.0 0.00 0.00 0.00 63 1016.6
20260902151019 53 204 0.0 0.0 0.00 0.00 0.00 64 1016.5
20260902150516 52 204 0.0 0.0 0.00 0.00 0.00 65 1016.4
20260902150018 51 204 0.0 0.0 0.00 0.00 0.00 67 1016.3
20260902145517 50 204 0.0 0.0 0.00 0.00 0.00 69 1016.3
20260902145018 49 204 0.0 0.0 0.00 0.00 0.00 70 1016.3
20260902144517 48 204 0.0 0.0 0.00 0.00 0.00 72 1016.2
20260902144017 48 204 0.0 0.0 0.00 0.00 0.00 72 1016.1
20260902143517 48 204 0.0 0.0 0.00 0.00 0.00 74 1015.9
20260902143018 47 204 0.0 0.0 0.00 0.00 0.00 73 1015.9
20260902142517 47 204 0.0 0.0 0.00 0.00 0.00 74 1015.9
20260902142018 46 204 0.0 1.0 0.00 0.00 0.00 75 1015.7
20260902141517 47 204 0.0 2.0 0.00 0.00 0.00 74 1015.8
20260902141017 46 204 1.0 2.0 0.00 0.00 0.00 78 1015.8
20260902140517 45 204 0.0 2.0 0.00 0.00 0.00 77 1015.9
20260902140019 45 204 0.0 2.0 0.00 0.00 0.00 78 1015.8
20260902134016 45 204 0.0 3.0 0.00 0.00 0.00 77 1015.6
20260902133517 45 204 0.0 3.0 0.00 0.00 0.00 77 1015.6
20260902133018 45 204 0.0 0.0 0.00 0.00 0.00 76 1015.5
20260902132520 45 204 0.0 2.0 0.00 0.00 0.00 77 1015.4
20260902132029 45 204 0.0 2.0 0.00 0.00 0.00 77 1015.3
20260902054518 50 208 1.0 5.0 0.00 0.00 0.00 68 1015.2
20260902054017 51 310 1.0 5.0 0.00 0.00 0.00 68 1015.2
20260902053517 51 312 0.0 0.0 0.00 0.00 0.00 69 1015.1
20260902053022 51 312 0.0 0.0 0.00 0.00 0.00 69 1015.1
20260902052517 51 312 0.0 0.0 0.00 0.00 0.00 68 1015.2
20260902052018 51 312 0.0 0.0 0.00 0.00 0.00 69 1015.2
20260902051517 51 312 0.0 0.0 0.00 0.00 0.00 69 1015.2
20260902051118 52 312 0.0 0.0 0.00 0.00 0.00 68 1015.1
20260902050518 52 312 0.0 0.0 0.00 0.00 0.00 68 1015.1
20260902050017 52 312 0.0 0.0 0.00 0.00 0.00 68 1015.1
20260902045518 53 312 0.0 0.0 0.00 0.00 0.00 69 1015.1
20260902045017 53 312 0.0 0.0 0.00 0.00 0.00 68 1015.1
20260902044518 53 312 0.0 0.0 0.00 0.00 0.00 68 1015.0
20260902044018 53 312 0.0 0.0 0.00 0.00 0.00 68 1015.0
20260902043517 54 312 0.0 0.0 0.00 0.00 0.00 68 1014.9
20260902043018 54 312 0.0 0.0 0.00 0.00 0.00 67 1014.8
20260902042518 54 312 0.0 0.0 0.00 0.00 0.00 67 1014.8
20260902042019 55 312 0.0 0.0 0.00 0.00 0.00 66 1014.6
20260902041517 55 312 0.0 0.0 0.00 0.00 0.00 68 1014.6
20260902041020 55 312 0.0 0.0 0.00 0.00 0.00 68 1014.5
20260902040518 55 312 0.0 0.0 0.00 0.00 0.00 68 1014.4
20260902040019 55 312 0.0 5.0 0.00 0.00 0.00 67 1014.3
20260902035617 55 312 0.0 5.0 0.00 0.00 0.00 67 1014.2
20260902035018 56 312 0.0 5.0 0.00 0.00 0.00 67 1014.2
20260902034618 56 312 0.0 0.0 0.00 0.00 0.00 67 1014.1
20260902034020 56 312 0.0 1.0 0.00 0.00 0.00 66 1014.0
20260902033517 56 311 0.0 7.0 0.00 0.00 0.00 66 1013.8
20260902033018 56 311 4.0 7.0 0.00 0.00 0.00 65 1013.7
20260902032518 57 307 1.0 7.0 0.00 0.00 0.00 64 1013.7
20260902032017 57 306 4.0 7.0 0.00 0.00 0.00 64 1013.6
20260902031518 58 302 2.0 5.0 0.00 0.00 0.00 61 1013.5
20260902031018 58 302 2.0 5.0 0.00 0.00 0.00 61 1013.5
20260902030518 58 302 3.0 5.0 0.00 0.00 0.00 60 1013.3
20260902030017 58 302 0.0 6.0 0.00 0.00 0.00 58 1013.3
20260902025518 59 302 3.0 6.0 0.00 0.00 0.00 58 1013.2
20260902025019 59 300 1.0 6.0 0.00 0.00 0.00 56 1013.1
20260902024518 59 299 1.0 5.0 0.00 0.00 0.00 55 1013.1
20260902024017 60 299 0.0 0.0 0.00 0.00 0.00 53 1013.0
20260902023519 61 299 0.0 0.0 0.00 0.00 0.00 52 1012.9
20260902023018 61 299 0.0 3.0 0.00 0.00 0.00 51 1012.9
20260902022519 61 299 0.0 5.0 0.00 0.00 0.00 50 1012.9
20260902022019 62 298 2.0 7.0 0.00 0.00 0.00 50 1012.8
20260902021617 62 298 0.0 7.0 0.00 0.00 0.00 49 1012.8
20260902021018 63 294 0.0 1.0 0.00 0.00 0.00 47 1012.8
20260902020518 64 294 0.0 0.0 0.00 0.00 0.00 46 1012.8
20260902020017 64 294 0.0 5.0 0.00 0.00 0.00 44 1012.7
20260902015517 64 294 0.0 5.0 0.00 0.00 0.00 44 1012.7
20260902015019 65 294 0.0 6.0 0.00 0.00 0.00 43 1012.7
20260902014518 65 291 0.0 6.0 0.00 0.00 0.00 42 1012.6
20260902014022 65 296 1.0 11.0 0.00 0.00 0.00 41 1012.6
20260902013518 66 286 3.0 11.0 0.00 0.00 0.00 40 1012.5
20260902013018 67 283 2.0 9.0 0.00 0.00 0.00 39 1012.5
20260902012521 67 289 0.0 1.0 0.00 0.00 0.00 37 1012.5
20260902012017 67 289 0.0 2.0 0.00 0.00 0.00 37 1012.5
20260902011522 67 289 0.0 9.0 0.00 0.00 0.00 38 1012.4
20260902011018 67 289 1.0 11.0 0.00 0.00 0.00 39 1012.4
20260902010517 67 308 4.0 11.0 0.00 0.00 0.00 39 1012.4
20260902010018 67 302 1.0 14.0 0.00 0.00 0.00 39 1012.4
20260902005518 67 359 5.0 14.0 0.00 0.00 0.00 39 1012.3
20260902005018 67 322 3.0 10.0 0.00 0.00 0.00 38 1012.3
20260902004518 68 294 2.0 10.0 0.00 0.00 0.00 38 1012.4
20260902004018 68 255 2.0 10.0 0.00 0.00 0.00 37 1012.3
20260902003518 69 285 1.0 11.0 0.00 0.00 0.00 37 1012.3
20260902003019 69 278 3.0 11.0 0.00 0.00 0.00 36 1012.3
20260902002518 69 302 2.0 10.0 0.00 0.00 0.00 36 1012.2
20260902002018 70 326 3.0 10.0 0.00 0.00 0.00 36 1012.2
20260902001518 70 296 3.0 12.0 0.00 0.00 0.00 35 1012.0
20260902001018 70 287 6.0 12.0 0.00 0.00 0.00 35 1012.0
20260902000520 71 289 2.0 14.0 0.00 0.00 0.00 34 1012.0
20260902000018 70 328 4.0 14.0 0.00 0.00 0.00 34 1012.0
20260901235518 70 297 6.0 12.0 0.00 0.00 0.00 34 1011.9
20260901235018 71 332 3.0 12.0 0.00 0.00 0.00 33 1012.0
20260901234518 72 322 3.0 15.0 0.00 0.00 0.00 32 1012.0
20260901234022 72 333 4.0 12.0 0.00 0.00 0.00 30 1012.0
20260901233517 74 314 2.0 10.0 0.00 0.00 0.00 28 1012.1
20260901233019 74 167 0.0 10.0 0.00 0.00 0.00 21 1012.3
20260901232519 74 187 0.0 10.0 0.00 0.00 0.00 21 1012.2
20260901232018 74 284 0.0 10.0 0.00 0.00 0.00 24 1012.2
20260901231519 74 183 2.0 17.0 0.00 0.00 0.00 21 1012.3
20260901231018 73 170 6.0 17.0 0.00 0.00 0.00 21 1012.2
20260901230519 75 204 0.0 5.0 0.00 0.00 0.00 20 1012.2
20260901230019 74 187 0.0 5.0 0.00 0.00 0.00 20 1012.3
20260901225518 73 186 0.0 10.0 0.00 0.00 0.00 21 1012.3
20260901225018 73 187 1.0 12.0 0.00 0.00 0.00 21 1012.3
20260901224518 74 188 6.0 12.0 0.00 0.00 0.00 20 1012.4
20260901224020 74 171 1.0 10.0 0.00 0.00 0.00 21 1012.3
20260901223518 73 190 0.0 15.0 0.00 0.00 0.00 21 1012.4
20260901223019 73 191 4.0 15.0 0.00 0.00 0.00 22 1012.4
20260901222518 73 171 8.0 14.0 0.00 0.00 0.00 21 1012.5
20260901222018 73 191 0.0 18.0 0.00 0.00 0.00 22 1012.5
20260901221518 73 195 9.0 18.0 0.00 0.00 0.00 22 1012.5
20260901221019 73 177 3.0 9.0 0.00 0.00 0.00 21 1012.5
20260901220518 73 192 1.0 14.0 0.00 0.00 0.00 22 1012.5
20260901220021 71 167 9.0 15.0 0.00 0.00 0.00 23 1012.6
20260901215520 71 178 9.0 15.0 0.00 0.00 0.00 24 1012.6
20260901215019 72 168 10.0 15.0 0.00 0.00 0.00 23 1012.6
20260901214521 72 178 8.0 14.0 0.00 0.00 0.00 22 1012.6
20260901214018 72 152 8.0 14.0 0.00 0.00 0.00 22 1012.6
20260901213519 72 168 0.0 10.0 0.00 0.00 0.00 23 1012.7
20260901213018 71 162 0.0 13.0 0.00 0.00 0.00 24 1012.7
20260901212619 71 176 9.0 13.0 0.00 0.00 0.00 25 1012.8
20260901212020 71 162 4.0 12.0 0.00 0.00 0.00 25 1012.9
20260901211518 71 191 3.0 14.0 0.00 0.00 0.00 25 1012.8
20260901211017 71 166 10.0 14.0 0.00 0.00 0.00 24 1012.9
20260901210618 72 199 9.0 13.0 0.00 0.00 0.00 24 1012.9
20260901210018 72 182 0.0 12.0 0.00 0.00 0.00 24 1012.9
20260901205519 71 179 7.0 12.0 0.00 0.00 0.00 25 1012.9
20260901205025 70 174 2.0 17.0 0.00 0.00 0.00 26 1013.0
20260901204518 70 170 11.0 17.0 0.00 0.00 0.00 26 1013.0
20260901204019 70 188 5.0 14.0 0.00 0.00 0.00 26 1013.0
20260901203520 70 200 5.0 15.0 0.00 0.00 0.00 26 1013.1
20260901203024 70 174 10.0 15.0 0.00 0.00 0.00 26 1013.1
20260901202519 69 176 5.0 15.0 0.00 0.00 0.00 27 1013.1
20260901202018 70 183 7.0 15.0 0.00 0.00 0.00 27 1013.1
20260901201505 69 170 10.0 15.0 0.00 0.00 0.00 27 1013.2
20260901201006 69 179 6.0 15.0 0.00 0.00 0.00 29 1013.2
20260901200506 70 189 0.0 13.0 0.00 0.00 0.00 28 1013.1
20260901200004 70 198 6.0 13.0 0.00 0.00 0.00 28 1013.2
20260901195506 70 166 7.0 14.0 0.00 0.00 0.00 30 1013.2
20260901195005 70 160 5.0 14.0 0.00 0.00 0.00 30 1013.2
20260901194505 70 170 5.0 10.0 0.00 0.00 0.00 30 1013.2
20260901194006 71 181 0.0 8.0 0.00 0.00 0.00 31 1013.2
20260901193505 69 181 3.0 9.0 0.00 0.00 0.00 32 1013.2
20260901193005 69 174 3.0 9.0 0.00 0.00 0.00 33 1013.3
20260901192505 68 177 4.0 11.0 0.00 0.00 0.00 35 1013.3
20260901192005 68 177 6.0 11.0 0.00 0.00 0.00 35 1013.3
20260901191506 68 177 4.0 11.0 0.00 0.00 0.00 36 1013.4
20260901191005 68 188 2.0 12.0 0.00 0.00 0.00 36 1013.5
20260901190510 67 163 2.0 12.0 0.00 0.00 0.00 37 1013.5
20260901190006 68 192 3.0 11.0 0.00 0.00 0.00 36 1013.4
20260901185510 67 190 3.0 11.0 0.00 0.00 0.00 37 1013.4
20260901185005 67 197 0.0 10.0 0.00 0.00 0.00 38 1013.4
20260901184505 66 197 4.0 10.0 0.00 0.00 0.00 39 1013.5
20260901184008 65 185 0.0 8.0 0.00 0.00 0.00 41 1013.6
20260901183504 64 185 4.0 7.0 0.00 0.00 0.00 43 1013.7
20260901183005 64 175 3.0 8.0 0.00 0.00 0.00 42 1013.8